Weather History for Colby, KS

Change the Weather History Date:

Saturday, August 3, 2013

  Actual Average (KGLD) Record (KGLD)
Temperature  
Mean Temperature 70 °F 75 °F  
Max Temperature 71 °F 89 °F 106 °F (1916)
Min Temperature 68 °F 62 °F 44 °F (1974)
Degree Days  
Heating Degree Days 0 0  
Month to date heating degree days 0  
Since 1 June heating degree days 41  
Since 1 July heating degree days 4  
Cooling Degree Days 4 10  
Month to date cooling degree days 32  
Year to date cooling degree days 586  
Since 1 June cooling degree days 545  
Growing Degree Days 20 (Base 50)    
Moisture  
Dew Point 68 °F    
Average Humidity 96    
Maximum Humidity 100    
Minimum Humidity 83    
Precipitation  
Precipitation 0.00 in 0.10 in 1.29 in (1992)
Month to date precipitation 0.32  
Year to date precipitation 13.52  
Snow  
Snow 0.00 in 0.00 in - ()
Month to date snowfall 0.0  
Since 1 June snowfall 0.0  
Since 1 July snowfall 0.0  
Snow Depth -    
Sea Level Pressure  
Sea Level Pressure 30.13 in    
Wind  
Wind Speed 11 mph (ENE)    
Max Wind Speed 20 mph    
Max Gust Speed 25 mph    
Visibility 6 miles    
Events Fog , Rain    
T = Trace of Precipitation, MM = Missing Value Source: NWS Daily Summary

Daily Weather History Graph

Daily Weather History Graph

Search for Another Location

Airport:

Trip Planner

Search our weather history database for the weather conditions in past years. The results will help you decide how hot, cold, wet, or windy it might be!

Date:

Astronomy

Aug. 03, 2013 Rise Set
Actual Time 6:46 AM CDT 8:54 PM CDT
Civil Twilight 6:16 AM CDT 9:23 PM CDT
Nautical Twilight 5:39 AM CDT 10:00 PM CDT
Astronomical Twilight 4:59 AM CDT 10:39 PM CDT
Moon 3:57 AM CDT (8/3) 6:37 PM CDT (8/3)
Length of Visible Light 15h 07m
Length of Day
14h 08m
Waning Crescent, 9% of the Moon is Illuminated
Aug 3
Waning Crescent
Aug 6
New
Aug 14
First Quarter
Aug 20
Full
Aug 28
Last Quarter

Hourly Weather History & Observations

Time (CDT) Temp. Dew Point Humidity Pressure Visibility Wind Dir Wind Speed Gust Speed Precip Events Conditions
12:15 AM 71.6 °F 71.6 °F 100% 30.03 in 10.0 mi East 11.5 mph - N/A   Scattered Clouds
12:35 AM 71.6 °F 71.6 °F 100% 30.04 in 10.0 mi East 10.4 mph - N/A   Overcast
12:55 AM 71.6 °F 71.6 °F 100% 30.05 in 10.0 mi East 9.2 mph - N/A   Overcast
1:15 AM 71.6 °F 71.6 °F 100% 30.06 in 10.0 mi ENE 10.4 mph - N/A   Overcast
1:35 AM 71.6 °F 71.6 °F 100% 30.06 in 10.0 mi ENE 11.5 mph 16.1 mph N/A   Overcast
1:55 AM 71.6 °F 71.6 °F 100% 30.07 in 10.0 mi ENE 10.4 mph 16.1 mph N/A   Overcast
2:15 AM 71.6 °F 69.8 °F 94% 30.07 in 10.0 mi ENE 9.2 mph 16.1 mph N/A   Overcast
2:35 AM 71.6 °F 69.8 °F 94% 30.06 in 10.0 mi East 12.7 mph - N/A   Overcast
2:55 AM 69.8 °F 69.8 °F 100% 30.07 in 10.0 mi East 12.7 mph - N/A   Overcast
3:15 AM 69.8 °F 69.8 °F 100% 30.07 in 7.0 mi East 11.5 mph - N/A   Overcast
3:35 AM 69.8 °F 69.8 °F 100% 30.06 in 7.0 mi ENE 11.5 mph - N/A   Overcast
3:55 AM 69.8 °F 69.8 °F 100% 30.07 in 5.0 mi ENE 9.2 mph 16.1 mph N/A   Overcast
4:15 AM 69.8 °F 69.8 °F 100% 30.07 in 2.5 mi ENE 9.2 mph - N/A   Overcast
4:35 AM 69.8 °F 69.8 °F 100% 30.07 in 1.5 mi ENE 10.4 mph - N/A   Overcast
4:55 AM 69.8 °F 69.8 °F 100% 30.07 in 1.8 mi ENE 9.2 mph - N/A   Overcast
5:15 AM 69.8 °F 69.8 °F 100% 30.08 in 3.0 mi NE 9.2 mph - N/A   Overcast
5:35 AM 68.0 °F 68.0 °F 100% 30.08 in 2.5 mi ENE 8.1 mph - N/A   Overcast
5:55 AM 68.0 °F 68.0 °F 100% 30.08 in 2.0 mi ENE 10.4 mph - N/A   Overcast
6:15 AM 68.0 °F 68.0 °F 100% 30.08 in 2.0 mi ENE 10.4 mph - N/A   Overcast
6:35 AM 68.0 °F 68.0 °F 100% 30.09 in 2.5 mi ENE 10.4 mph - N/A   Overcast
6:55 AM 68.0 °F 68.0 °F 100% 30.09 in 1.5 mi ENE 12.7 mph - N/A   Overcast
7:15 AM 68.0 °F 68.0 °F 100% 30.10 in 1.5 mi ENE 10.4 mph - N/A   Overcast
7:35 AM 68.0 °F 68.0 °F 100% 30.10 in 1.0 mi ENE 10.4 mph - N/A   Overcast
7:55 AM 68.0 °F 68.0 °F 100% 30.10 in 1.2 mi East 10.4 mph - N/A   Overcast
8:15 AM 68.0 °F 68.0 °F 100% 30.11 in 0.8 mi ENE 9.2 mph - N/A   Overcast
8:35 AM 68.0 °F 68.0 °F 100% 30.11 in 0.5 mi ENE 10.4 mph - N/A Fog Fog
8:55 AM 68.0 °F 68.0 °F 100% 30.11 in 0.5 mi ENE 12.7 mph - N/A Fog Fog
9:15 AM 68.0 °F 68.0 °F 100% 30.12 in 0.8 mi East 11.5 mph - N/A Rain Light Rain
9:35 AM 68.0 °F 68.0 °F 100% 30.12 in 1.0 mi East 9.2 mph - N/A   Overcast
9:55 AM 68.0 °F 68.0 °F 100% 30.12 in 1.2 mi ENE 9.2 mph - N/A   Overcast
10:15 AM 68.0 °F 68.0 °F 100% 30.13 in 1.5 mi East 9.2 mph - N/A   Overcast
10:35 AM 68.0 °F 68.0 °F 100% 30.13 in 1.2 mi East 10.4 mph - N/A   Overcast
10:55 AM 68.0 °F 68.0 °F 100% 30.13 in 0.8 mi East 10.4 mph - N/A   Overcast
11:15 AM 68.0 °F 68.0 °F 100% 30.13 in 0.8 mi East 9.2 mph - N/A   Overcast
11:35 AM 68.0 °F 68.0 °F 100% 30.14 in 2.0 mi ENE 10.4 mph - N/A   Overcast
11:55 AM 69.8 °F 69.8 °F 100% 30.14 in 4.0 mi ENE 10.4 mph - N/A   Overcast
12:15 PM 69.8 °F 69.8 °F 100% 30.15 in 4.0 mi ENE 12.7 mph - N/A   Overcast
12:35 PM 69.8 °F 68.0 °F 94% 30.16 in 5.0 mi ENE 11.5 mph - N/A   Overcast
12:55 PM 68.0 °F 68.0 °F 100% 30.16 in 5.0 mi ENE 15.0 mph - N/A   Overcast
1:15 PM 68.0 °F 68.0 °F 100% 30.17 in 5.0 mi ENE 15.0 mph - N/A   Overcast
1:35 PM 69.8 °F 68.0 °F 94% 30.17 in 5.0 mi ENE 15.0 mph 20.7 mph N/A   Overcast
1:55 PM 69.8 °F 68.0 °F 94% 30.18 in 7.0 mi NE 17.3 mph 21.9 mph N/A   Overcast
2:15 PM 69.8 °F 68.0 °F 94% 30.18 in 10.0 mi ENE 17.3 mph 21.9 mph N/A   Overcast
2:35 PM 68.0 °F 68.0 °F 100% 30.19 in 7.0 mi NE 17.3 mph 21.9 mph N/A   Overcast
2:55 PM 68.0 °F 68.0 °F 100% 30.19 in 5.0 mi NE 19.6 mph 25.3 mph N/A   Overcast
3:15 PM 68.0 °F 66.2 °F 94% 30.19 in 7.0 mi ENE 18.4 mph 25.3 mph N/A   Overcast
3:35 PM 68.0 °F 66.2 °F 94% 30.18 in 10.0 mi ENE 15.0 mph 24.2 mph N/A   Overcast
3:55 PM 68.0 °F 66.2 °F 94% 30.18 in 10.0 mi ENE 18.4 mph 25.3 mph N/A   Overcast
4:15 PM 68.0 °F 64.4 °F 88% 30.18 in 10.0 mi ENE 17.3 mph 23.0 mph N/A   Overcast
4:35 PM 68.0 °F 64.4 °F 88% 30.17 in 10.0 mi ENE 18.4 mph 24.2 mph N/A   Overcast
4:55 PM 68.0 °F 64.4 °F 88% 30.17 in 10.0 mi East 18.4 mph 24.2 mph N/A   Overcast
5:15 PM 69.8 °F 66.2 °F 88% 30.16 in 10.0 mi East 17.3 mph 23.0 mph N/A   Overcast
5:35 PM 69.8 °F 64.4 °F 83% 30.15 in 10.0 mi East 16.1 mph 24.2 mph N/A   Overcast
5:55 PM 69.8 °F 66.2 °F 88% 30.17 in 10.0 mi East 16.1 mph 20.7 mph N/A   Overcast
6:15 PM 69.8 °F 66.2 °F 88% 30.16 in 10.0 mi ESE 13.8 mph - N/A   Overcast
6:35 PM 71.6 °F 66.2 °F 83% 30.17 in 10.0 mi East 12.7 mph - N/A   Overcast
6:55 PM 71.6 °F 66.2 °F 83% 30.17 in 10.0 mi East 9.2 mph - N/A   Overcast
7:15 PM 71.6 °F 68.0 °F 88% 30.15 in 10.0 mi East 10.4 mph - N/A   Mostly Cloudy
7:35 PM 71.6 °F 68.0 °F 88% 30.15 in 10.0 mi East 11.5 mph - N/A   Scattered Clouds
7:55 PM 71.6 °F 68.0 °F 88% 30.17 in 10.0 mi East 9.2 mph - N/A   Overcast
8:15 PM 69.8 °F 68.0 °F 94% 30.18 in 10.0 mi East 9.2 mph - N/A   Overcast
8:35 PM 69.8 °F 68.0 °F 94% 30.18 in 10.0 mi East 8.1 mph - N/A   Overcast
8:55 PM 69.8 °F 68.0 °F 94% 30.19 in 10.0 mi ESE 9.2 mph - N/A   Overcast
9:15 PM 69.8 °F 68.0 °F 94% 30.19 in 10.0 mi East 5.8 mph - N/A   Overcast
9:35 PM 69.8 °F 68.0 °F 94% 30.19 in 10.0 mi East 8.1 mph - N/A   Overcast
9:55 PM 69.8 °F 68.0 °F 94% 30.19 in 10.0 mi East 6.9 mph - N/A   Overcast
10:15 PM 69.8 °F 68.0 °F 94% 30.19 in 10.0 mi NE 3.5 mph - N/A   Overcast
10:35 PM 69.8 °F 68.0 °F 94% 30.20 in 10.0 mi NE 4.6 mph - N/A   Overcast
10:55 PM 69.8 °F 68.0 °F 94% 30.20 in 10.0 mi NE 4.6 mph - N/A   Scattered Clouds
11:15 PM 68.0 °F 68.0 °F 100% 30.20 in 10.0 mi NE 4.6 mph - N/A   Mostly Cloudy
11:35 PM 68.0 °F 68.0 °F 100% 30.20 in 10.0 mi NE 5.8 mph - N/A   Overcast
11:55 PM 69.8 °F 68.0 °F 94% 30.20 in 10.0 mi NE 5.8 mph - N/A   Overcast